Vorticity
4 5 6 3 3 3 2 2 1 2 3 3 4 3 4 5 2 2 4 7 1 3 4 1 -2 2 3 2 6 5 9 9 4
5 4 5 5 3 4 2 2 2 2 2 2 3 4 4 4 6 2 3 5 5 3 3 3 1 1 3 2 3 1 5 5 8
7 4 4 5 4 3 3 2 2 1 1 1 2 3 3 5 5 5 3 3 6 4 2 4 1 1 2 2 2 -2 3 4 13
11 5 4 5 4 3 3 2 2 1 1 1 1 2 3 3 4 5 5 4 4 7 3 3 3 -1 2 0 2 -0 5 3 10
8 8 4 4 5 4 3 3 2 2 1 2 2 2 3 5 4 4 5 6 4 5 5 4 4 0 3 0 1 0 1 15 5
8 10 6 4 4 5 4 3 3 2 2 2 2 3 4 4 5 5 5 6 5 5 6 5 4 2 1 3 -0 0 1 2 1
8 8 10 6 4 4 4 4 4 3 2 2 3 3 4 5 5 6 5 6 5 6 7 5 4 4 2 3 2 1 -0 1 -2
4 5 7 10 7 4 4 3 3 3 3 3 3 4 5 6 5 5 5 6 6 6 7 6 5 3 2 5 2 3 2 -2 6
3 4 4 5 8 11 8 5 4 4 4 4 4 5 6 8 5 4 5 5 7 7 7 7 6 4 3 4 4 1 4 3 -1
2 4 3 3 4 4 6 9 10 10 10 9 8 7 7 7 4 4 4 6 6 7 6 7 8 5 5 4 3 3 3 2 2
2 2 3 3 4 4 4 3 3 3 3 4 5 4 4 4 4 4 5 5 5 6 6 6 9 8 6 4 5 2 3 3 3
3 3 3 4 3 3 4 4 4 4 4 4 4 5 3 4 5 4 6 6 6 5 5 6 6 8 9 5 5 4 3 3 2
7 6 3 3 2 1 2 2 2 3 4 4 4 4 5 5 5 5 6 6 5 4 4 6 5 6 10 9 6 4 3 4 5
7 8 6 6 5 4 4 5 5 6 6 7 5 5 5 4 4 5 6 4 3 5 6 6 7 7 5 9 10 7 4 3 3
4 9 6 8 7 6 6 5 4 4 5 4 4 4 3 4 6 5 4 6 5 5 5 6 6 5 6 9 7 9 7 5 3
1 12 9 7 6 7 6 6 6 5 6 4 4 5 6 6 5 7 7 5 3 5 6 6 6 7 7 6 7 10 7 9 10
-13 4 3 9 8 6 5 6 6 6 6 6 6 6 6 7 8 7 4 3 7 7 6 6 7 7 7 7 8 8 7 10 11
8 6 3 8 8 9 6 5 6 8 6 5 5 6 9 8 6 4 5 6 7 7 6 7 7 7 6 6 5 6 7 7 8
11 -3 11 -4 8 2 -5 -3 10 17 13 8 6 9 8 6 -1 5 4 7 5 5 8 11 10 10 8 9 9 8 6 6 6
16 -4 4 6 5 5 6 4 8 -5 9 7 2 5 8 2 7 5 8 6 5 6 10 13 12 11 8 7 7 7 7 9 9
Height
5877 5880 5882 5884 5887 5888 5890 5891 5893 5895 5895 5896 5896 5897 5898 5899 5898 5898 5899 5899 5899 5900 5899 5898 5898 5897 5896 5895 5894 5892 5891 5890 5888
5876 5878 5881 5883 5885 5888 5889 5891 5892 5893 5895 5896 5897 5898 5898 5899 5898 5898 5899 5899 5899 5900 5899 5899 5898 5898 5897 5896 5895 5893 5892 5890 5889
5874 5876 5879 5882 5884 5886 5888 5890 5891 5892 5893 5895 5896 5897 5897 5898 5898 5898 5898 5898 5899 5899 5899 5899 5898 5897 5897 5896 5895 5893 5892 5891 5889
5872 5874 5877 5880 5882 5884 5887 5888 5890 5891 5892 5894 5896 5897 5897 5898 5898 5898 5898 5898 5898 5898 5898 5898 5898 5897 5896 5896 5895 5894 5893 5891 5889
5869 5872 5874 5877 5879 5882 5884 5886 5888 5889 5890 5892 5894 5896 5896 5897 5897 5897 5897 5896 5896 5896 5897 5897 5897 5896 5896 5895 5894 5894 5893 5892 5890
5867 5869 5871 5874 5877 5879 5881 5884 5886 5887 5889 5890 5892 5893 5894 5895 5895 5895 5895 5895 5895 5895 5895 5895 5895 5895 5894 5895 5894 5893 5893 5892 5891
5865 5866 5869 5871 5874 5876 5878 5880 5882 5884 5886 5888 5889 5891 5892 5892 5893 5893 5893 5894 5893 5893 5893 5893 5893 5893 5892 5893 5892 5892 5892 5891 5890
5861 5863 5865 5867 5870 5873 5875 5877 5879 5881 5883 5885 5886 5888 5888 5890 5890 5891 5891 5891 5891 5891 5891 5891 5891 5890 5890 5891 5891 5890 5891 5890 5890
5856 5859 5861 5863 5866 5869 5871 5873 5876 5877 5879 5881 5883 5884 5885 5887 5887 5888 5888 5889 5890 5889 5889 5888 5888 5887 5887 5888 5889 5888 5888 5888 5888
5851 5854 5856 5859 5862 5865 5867 5869 5871 5873 5875 5877 5878 5880 5882 5883 5884 5885 5885 5886 5887 5887 5886 5886 5885 5884 5885 5885 5886 5886 5886 5885 5885
5846 5847 5850 5853 5857 5859 5862 5865 5867 5869 5871 5873 5875 5876 5878 5879 5880 5881 5882 5883 5884 5884 5883 5883 5883 5882 5882 5882 5882 5883 5883 5882 5883
5839 5840 5844 5847 5850 5853 5857 5860 5862 5865 5866 5868 5870 5872 5873 5875 5876 5877 5878 5878 5879 5880 5880 5880 5879 5879 5879 5879 5878 5879 5879 5878 5879
5831 5833 5837 5840 5843 5846 5850 5853 5856 5859 5861 5863 5865 5866 5868 5870 5871 5872 5873 5874 5874 5875 5876 5876 5876 5874 5875 5875 5875 5875 5874 5874 5874
5823 5826 5830 5832 5836 5839 5842 5846 5849 5852 5855 5857 5859 5861 5862 5864 5866 5868 5869 5869 5870 5870 5870 5871 5871 5871 5870 5871 5870 5870 5870 5870 5869
5814 5818 5822 5825 5829 5832 5835 5838 5841 5845 5848 5850 5852 5854 5857 5858 5860 5862 5863 5865 5865 5864 5864 5866 5866 5866 5864 5865 5865 5865 5864 5864 5864
5805 5809 5814 5817 5821 5824 5827 5829 5833 5837 5840 5842 5846 5847 5850 5852 5853 5855 5857 5858 5859 5859 5859 5858 5860 5860 5859 5859 5859 5859 5858 5858 5858
5795 5801 5804 5809 5812 5817 5819 5822 5825 5828 5832 5835 5837 5841 5843 5845 5846 5848 5849 5851 5852 5852 5852 5852 5852 5854 5853 5852 5853 5852 5852 5852 5851
5783 5789 5795 5799 5803 5807 5811 5814 5817 5821 5824 5827 5831 5833 5837 5837 5839 5841 5842 5844 5846 5846 5845 5846 5845 5845 5846 5845 5845 5845 5845 5845 5843
5773 5777 5783 5788 5792 5797 5802 5806 5809 5812 5816 5819 5823 5825 5828 5830 5832 5833 5834 5835 5837 5839 5838 5838 5837 5839 5837 5838 5837 5837 5836 5836 5835
5757 5762 5768 5775 5781 5787 5791 5797 5801 5805 5808 5811 5814 5817 5820 5822 5823 5825 5826 5828 5829 5830 5830 5830 5830 5830 5831 5830 5829 5829 5828 5828 5827